Meteopurmerend
purmerend
Purmerend - Baaienwijk



My webcam  My webcam


waarschuwing voor Onweer Meer informatie blitzortung!


Regen radar Meer informatie rain snow radar


Bezoek onze andere website:

CandyAppleRed WebdesignWebdesign Purmerend Candy Apple Red

MeteopurmerendBlog

Template documentation
and downloads



Onweer van: 19-06-2019 10:00 tot: 23:00 waarschuwing voor: Onweer niveau: Geel info button
Enkele onweersbuien, mogelijk met hagel en windstoten tot ca. 75 km/uur.Verkeer en buitenactiviteiten kunnen hinder ondervinden.Mijd open water en open gebied, schuil niet onder bomen.Volg weerberichten en waarschuwingen.

15 daagse weersverwachting Grenoble (FR)

  • Overzicht
  • Per uur
  • 15 dagen
  • Extra
  • Vergelijk
  • Kaarten
  • Dagkaart
  • Meer »
  • Info
  • Statistieken
  • Directe link
    Temp 6h Neerslag Wind  
 05:51     21:27    Daglengte: 15:36 Vandaag
14:00
30°
 
3
20:00
27°
 
2
 05:51     21:27    Daglengte: 15:36 Morgen
02:00
19°
 
1
08:00
18°
0.3 mm
1
14:00
25°
1.0 mm
2
20:00
23°
1.1 mm
1
warningclass
 05:51     21:28    Daglengte: 15:37 Vrijdag 21 Jun
02:00
19°
1.4 mm
1
08:00
19°
4.3 mm
1
14:00
24°
 
2
20:00
22°
7.2 mm
1
warningclass
 05:51     21:28    Daglengte: 15:37 Zaterdag 22 Jun
02:00
19°
10.5 mm
1
08:00
18°
24.8 mm
2
Locatie info
Region: Rhône-Alpes
Latitude: 45.1667°N
Longitude: 5.7167°E
221 masl
Temp/Neerslag /Baro Onweer/Dauwpunt
    Temp Baro 1h Neerslag Dauwpunt Wind UV Bewolking  
 05:51     21:27    Daglengte: 15:36 Vandaag
14:00
30°
Voelt als: 28.5°
1012.0 hPa
13%
10.9°
3
Windvlaag: 3.8 m/s
12%
15:00
30°
Voelt als: 29.0°
1011.2 hPa
12%
11.2°
3
Windvlaag: 3.9 m/s
20%
16:00
30°
Voelt als: 29.2°
1010.9 hPa
13%
11.8°
3
Windvlaag: 3.8 m/s
20%
17:00
30°
Voelt als: 29.0°
1010.6 hPa
13%
11.8°
3
Windvlaag: 2.6 m/s
8%
18:00
30°
Voelt als: 28.6°
1010.5 hPa
12%
11.6°
3
Windvlaag: 2.4 m/s
8%
19:00
29°
Voelt als: 28.0°
1010.9 hPa
12%
12.2°
2
Windvlaag: 1.8 m/s
22%
20:00
27°
1011.4 hPa
12%
15.6°
2
Windvlaag: 0.9 m/s
29%
21:00
25°
1012.2 hPa
12%
12.8°
2
Windvlaag: 0.2 m/s
73%
22:00
23°
1013.0 hPa
12%
12.5°
1
Windvlaag: -0.6 m/s
10%
23:00
22°
1013.7 hPa
12%
12.4°
1
Windvlaag: -0.6 m/s
6%
 05:51     21:27    Daglengte: 15:36 Morgen
00:00
21°
1013.9 hPa
12%
12.4°
1
Windvlaag: -0.1 m/s
11%
01:00
20°
1014.3 hPa
12%
12.4°
1
Windvlaag: -0 m/s
11%
02:00
19°
1014.6 hPa
12%
12.4°
1
Windvlaag: -0.2 m/s
28%
03:00
18°
1014.7 hPa
14%
12.3°
1
Windvlaag: -0.2 m/s
36%
04:00
18°
1014.6 hPa
24%
12.2°
1
Windvlaag: -0.2 m/s
48%
05:00
17°
1014.5 hPa
69%
12.7°
1
Windvlaag: -0.3 m/s
63%
06:00
17°
1014.8 hPa
78%
12.5°
1
Windvlaag: -0.1 m/s
57%
07:00
17°
1015.2 hPa 0.3 mm
78%
13.3°
1
Windvlaag: -0.3 m/s
75%
08:00
18°
1015.2 hPa
76%
15.0°
1
Windvlaag: -0.5 m/s
73%
09:00
20°
1015.0 hPa 1.0 mm
82%
15.0°
1
Windvlaag: -0.2 m/s
47%
10:00
21°
1015.2 hPa
34%
14.8°
1
Windvlaag: -1.2 m/s
46%
11:00
22°
1015.1 hPa
27%
14.9°
1
Windvlaag: -1.8 m/s
36%
12:00
24°
1014.7 hPa
32%
15.2°
1
Windvlaag: -1.8 m/s
25%
13:00
25°
1014.4 hPa
75%
15.1°
1
Windvlaag: -1.3 m/s
41%
14:00
25°
1014.3 hPa
44%
15.9°
2
Windvlaag: -0.5 m/s
65%
15:00
24°
1014.6 hPa
80%
17.8°
2
Windvlaag: 1.6 m/s
70%
16:00
25°
1014.5 hPa
82%
18.0°
2
Windvlaag: 1.8 m/s
48%
17:00
24°
1014.4 hPa 1.1 mm
82%
18.3°
2
Windvlaag: 0.4 m/s
53% warningclass
18:00
23°
1014.6 hPa
82%
18.5°
2
Windvlaag: -1 m/s
51%
19:00
23°
1014.5 hPa
81%
18.2°
2
Windvlaag: -1.4 m/s
49%
20:00
23°
1014.8 hPa
78%
17.9°
1
Windvlaag: -1.6 m/s
48%
21:00
22°
1015.1 hPa
37%
18.0°
1
Windvlaag: -1.7 m/s
24%
22:00
21°
1015.7 hPa
21%
17.4°
1
Windvlaag: -1.3 m/s
48%
23:00
20°
1015.9 hPa
24%
17.3°
1
Windvlaag: -1.3 m/s
70%
 05:51     21:28    Daglengte: 15:37 Vrijdag 21 Jun
00:00
20°
1016.3 hPa
80%
17.4°
1
Windvlaag: -1 m/s
88%
01:00
19°
1016.3 hPa
82%
17.3°
1
Windvlaag: -0.7 m/s
89%
02:00
19°
1016.3 hPa 1.4 mm
82%
17.1°
1
Windvlaag: -0.6 m/s
89%
03:00
19°
1016.2 hPa 2.0 mm
82%
17.3°
1
Windvlaag: -0.6 m/s
87%
04:00
19°
1016.1 hPa 2.3 mm
82%
17.1°
1
Windvlaag: -0.6 m/s
65%
05:00
18°
1015.7 hPa
31%
16.6°
1
Windvlaag: -0.5 m/s
58%
06:00
18°
1015.8 hPa
20%
16.7°
1
Windvlaag: -0.8 m/s
48%
07:00
18°
1016.0 hPa
55%
16.9°
1
Windvlaag: -0.8 m/s
72%
08:00
19°
1016.3 hPa
16%
17.4°
1
Windvlaag: -0.6 m/s
42%
09:00
21°
1016.5 hPa
15%
17.4°
1
Windvlaag: -0.7 m/s
54%
10:00
22°
1016.4 hPa
14%
17.7°
1
Windvlaag: -1.1 m/s
70%
11:00
22°
1016.4 hPa
25%
19.1°
1
Windvlaag: -1.4 m/s
68%
12:00
23°
1016.3 hPa
22%
19.9°
1
Windvlaag: -1.4 m/s
78%
13:00
24°
1016.1 hPa
32%
20.2°
2
Windvlaag: -1.7 m/s
71%
14:00
24°
1015.7 hPa
39%
20.3°
2
Windvlaag: -2 m/s
85%
15:00
24°
1015.3 hPa
95%
20.4°
2
Windvlaag: -1.8 m/s
63%
16:00
24°
1015.0 hPa
99%
20.3°
2
Windvlaag: -1.1 m/s
65%
17:00
24°
1015.0 hPa 2.3 mm
100%
19.6°
2
Windvlaag: -2.2 m/s
80% warningclass
18:00
23°
1015.4 hPa 2.6 mm
100%
19.1°
1
Windvlaag: -2.1 m/s
84% warningclass
19:00
22°
1015.4 hPa 2.3 mm
100%
18.6°
1
Windvlaag: -1.7 m/s
83% warningclass
20:00
22°
1015.4 hPa
56%
18.8°
1
Windvlaag: -1.4 m/s
85%
21:00
21°
1015.5 hPa
95%
18.9°
1
Windvlaag: -0.8 m/s
87%
22:00
20°
1015.8 hPa
37%
18.5°
1
Windvlaag: -0.4 m/s
96%
23:00
20°
1016.0 hPa 3.5 mm
25%
18.3°
1
Windvlaag: -0.4 m/s
78%
 05:51     21:28    Daglengte: 15:37 Zaterdag 22 Jun
00:00
19°
1015.8 hPa 3.6 mm
32%
17.6°
1
Windvlaag: -0.2 m/s
77%
01:00
19°
1015.8 hPa
29%
17.0°
1
Windvlaag: -0.6 m/s
71%
02:00
19°
1015.7 hPa 3.5 mm
98%
17.0°
1
Windvlaag: -1.7 m/s
85%
03:00
18°
1015.8 hPa 4.7 mm
100%
16.9°
1
Windvlaag: -2 m/s
88%
04:00
18°
1015.5 hPa 4.3 mm
100%
17.0°
1
Windvlaag: -2 m/s
57%
05:00
18°
1015.7 hPa 3.8 mm
99%
17.1°
1
Windvlaag: -1.6 m/s
73%
06:00
18°
1015.8 hPa 4.0 mm
97%
17.0°
1
Windvlaag: -1.2 m/s
81%
07:00
18°
1016.1 hPa 3.9 mm
94%
17.0°
1
Windvlaag: -1.5 m/s
85%
08:00
18°
1016.4 hPa 4.1 mm
97%
16.6°
2
Windvlaag: -1.8 m/s
93%
09:00
18°
1016.6 hPa 5.9 mm
98%
16.5°
1
Windvlaag: 4.8 m/s
93%
10:00
18°
1016.6 hPa
44%
16.7°
1
Windvlaag: 3.9 m/s
93%
11:00
19°
1016.5 hPa
30%
17.1°
1
Windvlaag: 2.8 m/s
88%
12:00
20°
1016.5 hPa
26%
17.6°
2
Windvlaag: 2.8 m/s
87%
13:00
21°
1016.6 hPa
26%
17.9°
2
Windvlaag: 3.7 m/s
89%
Temp/Neerslag /Baro Onweer/Dauwpunt
    Temp Baro Neerslag Dauwpunt Wind Bewolking  
 05:51     21:27    Daglengte: 15:36 Vandaag
14:00
30°
Voelt als: 28.5°
1012.0 hPa   10.9°
3
12%
17:00
30°
Voelt als: 29.0°
1010.6 hPa   11.8°
3
8%
20:00
27°
1011.4 hPa   15.6°
2
29%
23:00
22°
1013.7 hPa   12.4°
1
6%
 05:51     21:27    Daglengte: 15:36 Morgen
02:00
19°
1014.6 hPa   12.4°
1
28%
05:00
17°
1014.5 hPa   12.7°
1
63%
08:00
18°
1015.2 hPa 0.3 mm 15.0°
1
73%
11:00
22°
1015.1 hPa 1.0 mm 14.9°
1
36%
14:00
25°
1014.3 hPa   15.9°
2
65%
17:00
24°
1014.4 hPa 1.1 mm 18.3°
2
53% warningclass
20:00
23°
1014.8 hPa   17.9°
1
48%
23:00
20°
1015.9 hPa   17.3°
1
70%
 05:51     21:28    Daglengte: 15:37 Vrijdag 21 Jun
02:00
19°
1016.3 hPa 1.4 mm 17.1°
1
89%
05:00
18°
1015.7 hPa 4.3 mm 16.6°
1
58%
08:00
19°
1016.3 hPa   17.4°
1
42%
11:00
22°
1016.4 hPa   19.1°
1
68%
14:00
24°
1015.7 hPa   20.3°
2
85%
17:00
24°
1015.0 hPa 2.3 mm 19.6°
2
80% warningclass
20:00
22°
1015.4 hPa 4.9 mm 18.8°
1
85% warningclass
23:00
20°
1016.0 hPa 3.5 mm 18.3°
1
78%
 05:51     21:28    Daglengte: 15:37 Zaterdag 22 Jun
02:00
19°
1015.7 hPa 7.0 mm 17.0°
1
85%
05:00
18°
1015.7 hPa 12.8 mm 17.1°
1
73%
08:00
18°
1016.4 hPa 12.0 mm 16.6°
2
93%
11:00
19°
1016.5 hPa 5.9 mm 17.1°
1
88%
14:00
21°
1016.5 hPa   18.0°
2
87%
17:00
20°
1016.9 hPa 30.9 mm 17.9°
1
70%
20:00
20°
1017.2 hPa 30.9 mm 17.3°
0
62%
23:00
17°
1017.6 hPa 30.9 mm 16.3°
1
46%
 05:51     21:28    Daglengte: 15:37 Zondag 23 Jun
02:00
16°
1017.9 hPa 30.9 mm 15.3°
1
31%
05:00
16°
1017.6 hPa 30.9 mm 15.5°
1
60%
08:00
17°
1017.4 hPa 30.9 mm 16.1°
1
89%
11:00
22°
1017.0 hPa 30.9 mm 16.9°
1
74%
14:00
26°
1016.6 hPa 30.9 mm 16.1°
1
59%
17:00
27°
1016.4 hPa 30.9 mm 18.1°
1
29%
20:00
26°
1016.3 hPa 30.9 mm 20.2°
1
0%
23:00
23°
1017.3 hPa 30.9 mm 18.5°
1
1%
 05:52     21:28    Daglengte: 15:36 Maandag 24 Jun
02:00
19°
1018.1 hPa 30.9 mm 16.8°
2
3%
05:00
20°
1018.3 hPa 30.9 mm 16.9°
1
2%
08:00
21°
1018.6 hPa 30.9 mm 17.5°
1
0%
11:00
27°
1018.0 hPa 30.9 mm 17.9°
1
38%
14:00
33°
Voelt als: 32.3°
1017.3 hPa 30.9 mm 15.3°
1
75%
17:00
31°
1017.6 hPa 30.9 mm 20.1°
1
78%
20:00
30°
1017.9 hPa 30.9 mm 23.7°
1
80%
23:00
25°
1019.1 hPa 30.9 mm 21.6°
1
40%
 05:52     21:28    Daglengte: 15:36 Dinsdag 25 Jun
02:00
21°
1020.2 hPa 30.9 mm 19.2°
2
0%
05:00
22°
1020.5 hPa 30.9 mm 18.3°
1
0%
08:00
23°
1020.8 hPa 30.9 mm 18.0°
1
0%
11:00
29°
1020.0 hPa 30.9 mm 19.3°
1
0%
14:00
34°
1019.1 hPa 30.9 mm 18.4°
1
0%
17:00
33°
1019.1 hPa 30.9 mm 22.6°
1
0%
20:00
31°
1019.2 hPa 30.9 mm 25.7°
1
0%
23:00
27°
1020.2 hPa 30.9 mm 23.2°
1
2%
 05:53     21:28    Daglengte: 15:35 Woensdag 26 Jun
02:00
23°
1021.0 hPa 30.9 mm 20.4°
1
4%
05:00
23°
1021.2 hPa 30.9 mm 19.5°
1
15%
08:00
24°
1021.4 hPa 30.9 mm 18.9°
1
27%
11:00
30°
1020.6 hPa   20.6°
1
56%
14:00
35°
1019.9 hPa 61.8 mm 20.9°
1
84%
20:00
32°
1018.9 hPa 62.0 mm 23.5°
1
0%
 05:53     21:28    Daglengte: 15:35 Donderdag 27 Jun
02:00
23°
1020.9 hPa 62.5 mm 18.6°
2
0%
08:00
25°
1020.8 hPa 62.5 mm 20.2°
1
0%
14:00
35°
1018.9 hPa 62.5 mm 20.4°
1
1%
20:00
32°
1017.9 hPa 62.7 mm 26.5°
1
1%
 05:53     21:28    Daglengte: 15:35 Vrijdag 28 Jun
02:00
23°
1019.0 hPa 63.3 mm 21.2°
1
0%
08:00
25°
1018.4 hPa 63.5 mm 20.6°
1
0%
14:00
35°
1016.2 hPa 63.5 mm 20.3°
1
14%
20:00
31°
1015.1 hPa 64.2 mm 25.8°
1
55%
 05:54     21:28    Daglengte: 15:34 Zaterdag 29 Jun
02:00
24°
1016.3 hPa 65.1 mm 18.5°
2
0%
08:00
23°
1014.1 hPa   18.5°
1
13%
14:00
31°
1012.5 hPa 0.3 mm 17.4°
2
10%
20:00
28°
1012.3 hPa 0.3 mm 21.2°
2
14%
 05:54     21:28    Daglengte: 15:34 Zondag 30 Jun
02:00
19°
1014.2 hPa 0.2 mm 16.6°
1
16%
08:00
22°
1014.2 hPa 0.1 mm 18.4°
1
28%
14:00
29°
1013.2 hPa 0.2 mm 17.9°
2
18%
20:00
26°
1013.1 hPa 0.7 mm 20.2°
2
21%
 05:55     21:28    Daglengte: 15:33 Maandag 01 Jul
02:00
18°
1015.0 hPa 0.4 mm 15.8°
1
20%
08:00
20°
1014.9 hPa 0.3 mm 16.7°
1
22%
14:00
26°
1013.5 hPa 0.5 mm 16.1°
2
21%
20:00
23°
1013.5 hPa 1.3 mm 17.8°
3
27%
 05:56     21:28    Daglengte: 15:32 Dinsdag 02 Jul
02:00
16°
1015.6 hPa 0.2 mm 14.2°
2
20%
08:00
18°
1015.3 hPa 0.1 mm 14.7°
2
22%
14:00
25°
1013.8 hPa 0.9 mm 15.3°
3
22%
20:00
22°
1014.0 hPa 0.7 mm 16.7°
3
25%
 05:56     21:27    Daglengte: 15:31 Woensdag 03 Jul
02:00
15°
1016.1 hPa 0.6 mm 13.6°
2
24%
08:00
17°
1016.1 hPa 0.3 mm 14.4°
2
30%
14:00
24°
1015.0 hPa 0.6 mm 15.1°
3
28%
20:00
22°
1015.0 hPa 1.0 mm 16.6°
3
30%
 05:57     21:27    Daglengte: 15:30 Donderdag 04 Jul
02:00
15°
1016.9 hPa 0.2 mm 13.0°
2
22%
08:00
17°
1016.9 hPa 0.1 mm 14.2°
2
22%
  CAPE Lifted Index Hail Supercell Tornado SRH 3km CL BTM PRES CL TOP PRES Swiss DWD icon SMHI TS
 05:51     21:27    Daglengte: 15:36 Vandaag
14:00 16 J/kg 0.0 K 0 % 0 % 0 % 0 m²/s² 0 0 2.13 0
15:00 25 J/kg -0.1 K 0 % 0 % 0 % 0 m²/s² 0 0 2.69 0
16:00 25 J/kg -0.4 K 0 % 0 % 0 % 0 m²/s² 0 0 3.26 1
17:00 21 J/kg -0.2 K 0 % 0 % 0 % 0 m²/s² 0 0 3.97 0
18:00 17 J/kg -0.2 K 0 % 0 % 0 % 0 m²/s² 0 0 4.18 0
19:00 38 J/kg -0.6 K 0 % 0 % 0 % 0 m²/s² 0 0 3.24 0
20:00 36 J/kg -0.5 K 0 % 0 % 0 % 0 m²/s² 0 0 2.59 0
21:00 16 J/kg -0.1 K 0 % 0 % 0 % 0 m²/s² 0 0 2 3
22:00 0 J/kg 0.7 K 0 % 0 % 0 % 0 m²/s² 0 0 2.5 2
23:00 0 J/kg -0.3 K 0 % 0 % 0 % 0 m²/s² 0 0 1.02 0
 05:51     21:27    Daglengte: 15:36 Morgen
00:00 0 J/kg -0.6 K 0 % 0 % 0 % 0 m²/s² 0 0 0.96 3
01:00 0 J/kg -1.2 K 0 % 0 % 0 % 0 m²/s² 0 0 0.24 1
02:00 0 J/kg -2.1 K 0 % 0 % 0 % 0 m²/s² 0 0 -1.26 3
03:00 0 J/kg -2.2 K 0 % 0 % 0 % 0 m²/s² 0 0 -1.66 3
04:00 0 J/kg -2.3 K 0 % 0 % 0 % 0 m²/s² 0 0 -1.58 3
05:00 0 J/kg -2.4 K 0 % 0 % 0 % 0 m²/s² 0 0 -2.28 3
06:00 0 J/kg -2.2 K 0 % 0 % 0 % 0 m²/s² 0 0 -1.93 3
07:00 0 J/kg -1.7 K 0 % 0 % 0 % 0 m²/s² 0 0 -1.61 3
08:00 23 J/kg -0.5 K 0 % 0 % 0 % 0 m²/s² 0 0 0.13 3
09:00 0 J/kg 0.0 K 0 % 0 % 0 % 0 m²/s² 0 0 1.11 2
10:00 48 J/kg -0.3 K 0 % 0 % 0 % 0 m²/s² 0 0 0.96 1
11:00 249 J/kg -1.4 K 0 % 0 % 0 % 0 m²/s² 0 0 0.13 0
12:00 398 J/kg -2.3 K 0 % 0 % 0 % 0 m²/s² 0 0 -0.47 1
13:00 525 J/kg -3.2 K 0 % 0 % 0 % 0 m²/s² 0 0 -1.49 2
14:00 688 J/kg -3.7 K 0 % 0 % 0 % 0 m²/s² 0 0 -1.75 3
15:00 711 J/kg -3.9 K 0 % 0 % 0 % 0 m²/s² 0 0 -1.8 3
16:00 648 J/kg -3.6 K 0 % 0 % 0 % 0 m²/s² 0 0 -1.23 3
17:00 1150 J/kg -5.2 K 0 % 0 % 0 % 0 m²/s² 0 0 -2.89 3
18:00 1015 J/kg -4.9 K 0 % 0 % 0 % 0 m²/s² 0 0 -3.25 3
19:00 947 J/kg -4.3 K 0 % 0 % 0 % 0 m²/s² 0 0 -2.92 3
20:00 728 J/kg -3.8 K 0 % 0 % 0 % 0 m²/s² 0 0 -2.48 1
21:00 633 J/kg -3.5 K 0 % 0 % 0 % 0 m²/s² 0 0 -2.24 1
22:00 695 J/kg -3.3 K 0 % 0 % 0 % 0 m²/s² 0 0 -2.1 3
23:00 577 J/kg -2.9 K 0 % 0 % 0 % 0 m²/s² 0 0 -1.46 3
 05:51     21:28    Daglengte: 15:37 Vrijdag 21 Jun
00:00 521 J/kg -3.1 K 0 % 0 % 0 % 0 m²/s² 0 0 -2.35 3
01:00 397 J/kg -2.6 K 0 % 0 % 0 % 0 m²/s² 0 0 -1.94 80
02:00 323 J/kg -2.2 K 0 % 0 % 0 % 0 m²/s² 0 0 -1.36 80
03:00 361 J/kg -1.4 K 0 % 0 % 0 % 0 m²/s² 0 0 -0.86 80
04:00 128 J/kg -0.8 K 0 % 0 % 0 % 0 m²/s² 0 0 -0.32 80
05:00 0 J/kg -0.4 K 0 % 0 % 0 % 0 m²/s² 0 0 0.41 2
06:00 3 J/kg 0.1 K 0 % 0 % 0 % 0 m²/s² 0 0 1.36 2
07:00 0 J/kg 0.2 K 0 % 0 % 0 % 0 m²/s² 0 0 1.82 3
08:00 0 J/kg 0.1 K 0 % 0 % 0 % 0 m²/s² 0 0 1.96 2
09:00 66 J/kg -0.5 K 0 % 0 % 0 % 0 m²/s² 0 0 1.24 2
10:00 189 J/kg -1.0 K 0 % 0 % 0 % 0 m²/s² 0 0 0.62 3
11:00 306 J/kg -1.5 K 0 % 0 % 0 % 0 m²/s² 0 0 0.18 3
12:00 545 J/kg -2.6 K 0 % 0 % 0 % 0 m²/s² 0 0 -1.1 3
13:00 899 J/kg -4.1 K 0 % 0 % 0 % 0 m²/s² 0 0 -2.42 3
14:00 1254 J/kg -4.5 K 0 % 0 % 0 % 0 m²/s² 0 0 -3.54 2
15:00 1417 J/kg -4.0 K 0 % 0 % 0 % 0 m²/s² 0 0 -3.19 3
16:00 225 J/kg -3.4 K 0 % 0 % 0 % 0 m²/s² 0 0 -2.83 3
17:00 419 J/kg -3.6 K 0 % 0 % 0 % 0 m²/s² 0 0 -3.3 3
18:00 629 J/kg -4.4 K 0 % 0 % 0 % 0 m²/s² 0 0 -4.01 80
19:00 805 J/kg -5.2 K 0 % 0 % 0 % 0 m²/s² 0 0 -4.66 80
20:00 985 J/kg -5.8 K 0 % 0 % 0 % 0 m²/s² 0 0 -5.5 3
21:00 977 J/kg -5.0 K 0 % 0 % 0 % 0 m²/s² 0 0 -4.7 3
22:00 1052 J/kg -4.3 K 0 % 0 % 0 % 0 m²/s² 0 0 -3.25 3
23:00 538 J/kg -2.4 K 0 % 0 % 0 % 0 m²/s² 0 0 -1.95 2
 05:51     21:28    Daglengte: 15:37 Zaterdag 22 Jun
00:00 353 J/kg -2.4 K 0 % 0 % 0 % 0 m²/s² 0 0 -1.29 3
01:00 486 J/kg -3.0 K 0 % 0 % 0 % 0 m²/s² 0 0 -1.23 2
02:00 402 J/kg -2.9 K 0 % 0 % 0 % 0 m²/s² 0 0 -0.59 80
03:00 275 J/kg -2.3 K 0 % 0 % 0 % 0 m²/s² 0 0 0.22 81
04:00 105 J/kg -1.4 K 0 % 0 % 0 % 0 m²/s² 0 0 1.93 80
05:00 17 J/kg -1.0 K 0 % 0 % 0 % 0 m²/s² 0 0 1.97 80
06:00 7 J/kg -0.5 K 0 % 0 % 0 % 0 m²/s² 0 0 2.62 3
07:00 8 J/kg -0.4 K 0 % 0 % 0 % 0 m²/s² 0 0 2.9 3
08:00 8 J/kg 0.0 K 0 % 0 % 0 % 0 m²/s² 0 0 3.48 80
09:00 28 J/kg 0.5 K 0 % 0 % 0 % 0 m²/s² 0 0 3.71 80
10:00 57 J/kg -0.2 K 0 % 0 % 0 % 0 m²/s² 0 0 2.92 3
11:00 49 J/kg 0.0 K 0 % 0 % 0 % 0 m²/s² 0 0 2.88 3
12:00 50 J/kg 1.0 K 0 % 0 % 0 % 0 m²/s² 0 0 4.21 3
13:00 60 J/kg 1.4 K 0 % 0 % 0 % 0 m²/s² 0 0 5.18 3
Temp Baro Wind Neerslag
  EWN Forecast EWN WRFDA DWD ICON FMI HIRLAM MET Norway GFS
 05:51     21:27    Daglengte: 15:36 Vandaag
14:00 29.5° 1012.0 hPa 2.8 m/s 0.0 mm 28.9° 1011.3 hPa 5.9 m/s 0.0 mm 27.9° 1012.0 hPa 0.2 m/s -2.0 mm 31.3° 1012.8 hPa 4.8 m/s 0.0 mm 29.9° 1011.4 hPa 2.5 m/s 0.0 mm 30.0° 1012.8 hPa 3.2 m/s
17:00 30.1° 1010.6 hPa 3.1 m/s 0.0 mm 29.1° 1010.3 hPa 5.9 m/s 0.0 mm 29.5° 1010.4 hPa 3.4 m/s 0.0 mm 31.5° 1012.0 hPa 5.0 m/s 0.0 mm 30.0° 1010.2 hPa 1.7 m/s 0.0 mm 29.4° 1011.6 hPa 2.6 m/s
20:00 26.7° 1011.4 hPa 1.7 m/s 0.0 mm 26.5° 1011.0 hPa 3.4 m/s 0.0 mm 26.2° 1010.6 hPa 1.4 m/s 0.0 mm 27.5° 1013.0 hPa 2.6 m/s 0.0 mm 26.5° 1011.3 hPa 1.0 m/s 0.0 mm 24.2° 1012.6 hPa 1.0 m/s
23:00 21.8° 1013.7 hPa 1.3 m/s 0.0 mm 22.2° 1012.8 hPa 3.2 m/s 0.0 mm 19.4° 1013.3 hPa 1.6 m/s 0.0 mm 20.4° 1015.6 hPa 1.1 m/s 0.0 mm 22.1° 1013.7 hPa 0.8 m/s 0.0 mm 18.0° 1014.9 hPa 0.7 m/s
 05:51     21:27    Daglengte: 15:36 Morgen
02:00 18.9° 1014.6 hPa 1.5 m/s 0.0 mm 21.0° 1013.5 hPa 2.0 m/s 0.2 mm 17.6° 1014.7 hPa 1.6 m/s 0.0 mm 17.1° 1016.4 hPa 0.8 m/s 0.0 mm 19.0° 1014.5 hPa 1.5 m/s 0.0 mm 16.0° 1015.2 hPa 0.6 m/s
05:00 17.2° 1014.5 hPa 1.1 m/s 0.0 mm 19.7° 1013.0 hPa 2.0 m/s 1.6 mm 16.9° 1014.8 hPa 1.1 m/s 0.0 mm 15.5° 1016.6 hPa 0.5 m/s 0.0 mm 17.1° 1014.5 hPa 1.0 m/s 0.0 mm 16.4° 1014.5 hPa 1.0 m/s
08:00 18.4° 1015.2 hPa 0.6 m/s 0.3 mm 18.3° 1014.5 hPa 2.0 m/s 5.0 mm 17.7° 1015.5 hPa 0.6 m/s 0.1 mm 19.5° 1015.1 hPa 0.2 m/s 0.0 mm 18.2° 1015.5 hPa 0.3 m/s 0.3 mm 18.7° 1014.8 hPa 0.3 m/s
11:00 22.1° 1015.1 hPa 1.0 m/s 1.0 mm 22.7° 1014.6 hPa 2.9 m/s 12.7 mm 21.7° 1015.3 hPa 0.7 m/s 0.0 mm 26.6° 1013.5 hPa 0.6 m/s 0.0 mm 21.8° 1015.2 hPa 0.6 m/s 0.0 mm 23.8° 1014.5 hPa 1.8 m/s
14:00 25.2° 1014.3 hPa 1.7 m/s 0.0 mm 25.6° 1013.7 hPa 1.5 m/s 12.8 mm 24.6° 1014.8 hPa 2.2 m/s 0.0 mm 28.2° 1013.6 hPa 4.4 m/s 0.0 mm 25.3° 1014.2 hPa 1.3 m/s 0.0 mm 26.5° 1014.0 hPa 1.7 m/s
17:00 24.1° 1014.4 hPa 1.7 m/s 1.1 mm 25.5° 1012.8 hPa 3.5 m/s 12.9 mm 22.8° 1014.4 hPa 2.4 m/s 0.3 mm 23.7° 1014.8 hPa 2.1 m/s 0.0 mm 24.1° 1014.4 hPa 0.7 m/s 0.5 mm 24.5° 1013.4 hPa 1.6 m/s
20:00 22.8° 1014.8 hPa 1.4 m/s 0.0 mm 24.4° 1013.2 hPa 3.4 m/s 13.4 mm 21.8° 1015.2 hPa 1.5 m/s 0.1 mm 23.4° 1014.6 hPa 1.0 m/s 0.0 mm 22.1° 1014.9 hPa 1.0 m/s 0.8 mm 22.2° 1014.2 hPa 1.4 m/s
23:00 20.2° 1015.9 hPa 1.0 m/s 0.0 mm 21.7° 1013.5 hPa 2.1 m/s 14.0 mm 18.9° 1015.6 hPa 0.6 m/s 0.0 mm 20.2° 1016.4 hPa 1.2 m/s 0.0 mm 20.3° 1016.1 hPa 0.5 m/s 0.0 mm 17.7° 1016.0 hPa 0.8 m/s
 05:51     21:28    Daglengte: 15:37 Vrijdag 21 Jun
02:00 19.0° 1016.3 hPa 0.8 m/s 1.4 mm 20.5° 1014.8 hPa 2.4 m/s 14.3 mm 17.5° 1017.0 hPa 0.4 m/s 1.2 mm 18.3° 1016.3 hPa 0.6 m/s 0.0 mm 19.1° 1016.0 hPa 0.6 m/s 0.0 mm 17.1° 1016.3 hPa 1.3 m/s
05:00 18.3° 1015.7 hPa 0.6 m/s 4.3 mm 18.5° 1013.8 hPa 0.4 m/s 19.9 mm 16.5° 1016.4 hPa 0.6 m/s 1.6 mm 17.1° 1015.9 hPa 0.9 m/s 0.0 mm 19.1° 1015.6 hPa 0.1 m/s 3.8 mm 15.8° 1016.1 hPa 0.6 m/s
08:00 19.5° 1016.3 hPa 0.9 m/s 0.0 mm 20.6° 1013.1 hPa 0.5 m/s 21.1 mm 17.4° 1017.0 hPa 0.4 m/s 0.0 mm 19.9° 1015.8 hPa 1.1 m/s 0.0 mm 19.6° 1016.6 hPa 0.9 m/s 0.0 mm 18.8° 1016.4 hPa 0.4 m/s
11:00 22.2° 1016.4 hPa 1.2 m/s 0.0 mm 24.4° 1013.7 hPa 0.9 m/s 21.1 mm 20.4° 1016.7 hPa 0.9 m/s 0.0 mm 22.0° 1017.0 hPa 1.2 m/s 0.0 mm 23.3° 1016.0 hPa 1.6 m/s
14:00 24.2° 1015.7 hPa 1.8 m/s 0.0 mm 25.7° 1013.1 hPa 1.7 m/s 21.5 mm 22.7° 1016.0 hPa 2.5 m/s 0.0 mm 23.9° 1016.2 hPa 1.3 m/s 0.7 mm 28.0° 1014.9 hPa 1.3 m/s
17:00 23.8° 1015.0 hPa 1.7 m/s 2.3 mm 22.0° 1013.5 hPa 2.6 m/s 29.1 mm 22.9° 1015.1 hPa 2.2 m/s 0.1 mm 23.6° 1015.9 hPa 0.5 m/s 0.5 mm 24.5° 1013.6 hPa 1.2 m/s
20:00 21.9° 1015.4 hPa 1.1 m/s 4.9 mm 23.8° 1012.6 hPa 1.1 m/s 31.7 mm 19.4° 1016.4 hPa 0.4 m/s 1.6 mm 21.8° 1015.8 hPa 1.1 m/s 0.0 mm 21.5° 1014.5 hPa 0.8 m/s
23:00 19.8° 1016.0 hPa 1.1 m/s 3.5 mm 19.6° 1014.2 hPa 4.3 m/s 42.8 mm 18.0° 1016.2 hPa 0.9 m/s 0.1 mm 19.9° 1016.9 hPa 0.4 m/s 0.3 mm 17.1° 1016.2 hPa 0.4 m/s
 05:51     21:28    Daglengte: 15:37 Zaterdag 22 Jun
02:00 18.5° 1015.7 hPa 1.5 m/s 7.0 mm 19.0° 1013.5 hPa 2.2 m/s 48.9 mm 17.2° 1015.9 hPa 0.9 m/s 0.3 mm 18.5° 1016.4 hPa 1.3 m/s 0.5 mm 16.8° 1016.6 hPa 0.8 m/s
05:00 17.7° 1015.7 hPa 1.1 m/s 12.8 mm 17.3° 1013.7 hPa 3.2 m/s 49.2 mm 16.3° 1016.0 hPa 0.8 m/s 5.3 mm 18.0° 1015.9 hPa 0.6 m/s 0.0 mm 17.3° 1016.1 hPa 0.9 m/s
08:00 17.7° 1016.4 hPa 1.7 m/s 12.0 mm 16.1° 1015.3 hPa 3.0 m/s 49.7 mm 15.6° 1017.3 hPa 1.7 m/s 2.1 mm 19.1° 1016.4 hPa 0.6 m/s 0.0 mm 17.2° 1016.7 hPa 1.4 m/s
11:00 19.3° 1016.5 hPa 1.4 m/s 5.9 mm 19.2° 1015.6 hPa 2.1 m/s 50.1 mm 15.9° 1017.6 hPa 1.5 m/s 0.5 mm 20.4° 1016.5 hPa 1.2 m/s 18.8° 1016.4 hPa 1.6 m/s
14:00 21.1° 1016.5 hPa 2.3 m/s 0.0 mm 22.1° 1014.9 hPa 3.8 m/s 50.5 mm 17.9° 1017.7 hPa 2.4 m/s 0.0 mm 21.6° 1016.5 hPa 1.9 m/s 24.4° 1015.3 hPa 1.8 m/s
17:00 20.4° 1016.9 hPa 1.0 m/s 30.9 mm 20.1° 1017.1 hPa 0.8 m/s 23.5° 1014.3 hPa 2.6 m/s 30.9 mm
20:00 19.5° 1017.2 hPa 0.4 m/s 30.9 mm 19.4° 1017.4 hPa 0.3 m/s 21.0° 1014.9 hPa 1.8 m/s 30.9 mm
23:00 17.5° 1017.6 hPa 0.8 m/s 30.9 mm 17.6° 1017.7 hPa 0.8 m/s 16.2° 1016.7 hPa 0.8 m/s 30.9 mm
 05:51     21:28    Daglengte: 15:37 Zondag 23 Jun
02:00 15.8° 1017.9 hPa 1.2 m/s 30.9 mm 15.8° 1018.0 hPa 1.2 m/s 15.6° 1016.5 hPa 1.1 m/s 30.9 mm
05:00 16.3° 1017.6 hPa 1.2 m/s 30.9 mm 16.5° 1017.8 hPa 1.2 m/s 14.3° 1016.2 hPa 1.1 m/s 30.9 mm
08:00 17.3° 1017.4 hPa 1.2 m/s 30.9 mm 17.2° 1017.5 hPa 1.2 m/s 18.1° 1016.5 hPa 0.9 m/s 30.9 mm
11:00 22.1° 1017.0 hPa 1.1 m/s 30.9 mm 21.6° 1017.1 hPa 1.1 m/s 27.0° 1016.2 hPa 0.8 m/s 30.9 mm
14:00 26.5° 1016.6 hPa 1.0 m/s 30.9 mm 26.1° 1016.7 hPa 1.0 m/s 30.9° 1016.0 hPa 1.0 m/s 30.9 mm
17:00 26.6° 1016.4 hPa 0.9 m/s 30.9 mm 26.2° 1016.5 hPa 0.8 m/s 30.4° 1015.4 hPa 1.3 m/s 30.9 mm
20:00 26.3° 1016.3 hPa 0.7 m/s 30.9 mm 26.3° 1016.3 hPa 0.7 m/s 26.2° 1016.1 hPa 0.9 m/s 30.9 mm
23:00 22.7° 1017.3 hPa 1.1 m/s 30.9 mm 22.9° 1017.1 hPa 1.1 m/s 20.5° 1018.7 hPa 1.6 m/s 30.9 mm
 05:52     21:28    Daglengte: 15:36 Maandag 24 Jun
02:00 19.4° 1018.1 hPa 1.5 m/s 30.9 mm 19.4° 1018.0 hPa 1.5 m/s 19.3° 1019.3 hPa 1.7 m/s 30.9 mm
05:00 20.1° 1018.3 hPa 1.4 m/s 30.9 mm 20.2° 1018.2 hPa 1.4 m/s 19.0° 1019.2 hPa 1.7 m/s 30.9 mm
08:00 21.1° 1018.6 hPa 1.3 m/s 30.9 mm 21.0° 1018.5 hPa 1.3 m/s 22.4° 1020.0 hPa 1.5 m/s 30.9 mm
11:00 27.0° 1018.0 hPa 1.1 m/s 30.9 mm 26.6° 1017.9 hPa 1.1 m/s 31.5° 1019.5 hPa 0.6 m/s 30.9 mm
14:00 32.5° 1017.3 hPa 1.0 m/s 30.9 mm 32.2° 1017.2 hPa 1.0 m/s 36.4° 1018.8 hPa 0.9 m/s 30.9 mm
17:00 31.3° 1017.6 hPa 1.0 m/s 30.9 mm 30.9° 1017.5 hPa 1.0 m/s 35.1° 1018.2 hPa 1.1 m/s 30.9 mm
20:00 29.6° 1017.9 hPa 1.0 m/s 30.9 mm 29.6° 1017.8 hPa 1.0 m/s 29.4° 1018.9 hPa 0.7 m/s 30.9 mm
23:00 25.3° 1019.1 hPa 1.3 m/s 30.9 mm 25.5° 1019.0 hPa 1.2 m/s 23.4° 1021.2 hPa 1.3 m/s 30.9 mm
 05:52     21:28    Daglengte: 15:36 Dinsdag 25 Jun
02:00 21.5° 1020.2 hPa 1.5 m/s 30.9 mm 21.4° 1020.1 hPa 1.5 m/s 22.0° 1021.4 hPa 1.9 m/s 30.9 mm
05:00 22.1° 1020.5 hPa 1.5 m/s 30.9 mm 22.1° 1020.5 hPa 1.4 m/s 21.5° 1020.8 hPa 1.9 m/s 30.9 mm
08:00 23.0° 1020.8 hPa 1.4 m/s 30.9 mm 22.8° 1020.8 hPa 1.4 m/s 24.7° 1021.2 hPa 1.6 m/s 30.9 mm
11:00 28.9° 1020.0 hPa 1.2 m/s 30.9 mm 28.5° 1020.0 hPa 1.1 m/s 33.6° 1020.5 hPa 1.3 m/s 30.9 mm
14:00 34.4° 1019.1 hPa 1.0 m/s 30.9 mm 34.1° 1019.1 hPa 0.9 m/s 38.2° 1019.2 hPa 1.9 m/s 30.9 mm
17:00 33.0° 1019.1 hPa 1.1 m/s 30.9 mm 32.5° 1019.2 hPa 1.1 m/s 37.4° 1018.5 hPa 1.8 m/s 30.9 mm
20:00 31.0° 1019.2 hPa 1.1 m/s 30.9 mm 31.0° 1019.2 hPa 1.2 m/s 31.2° 1018.9 hPa 0.5 m/s 30.9 mm
23:00 26.7° 1020.2 hPa 1.3 m/s 30.9 mm 26.8° 1020.1 hPa 1.3 m/s 25.2° 1021.3 hPa 1.4 m/s 30.9 mm
 05:53     21:28    Daglengte: 15:35 Woensdag 26 Jun
02:00 22.7° 1021.0 hPa 1.4 m/s 30.9 mm 22.6° 1021.0 hPa 1.4 m/s 23.5° 1020.8 hPa 1.5 m/s 30.9 mm
05:00 23.2° 1021.2 hPa 1.5 m/s 30.9 mm 23.2° 1021.2 hPa 1.4 m/s 22.1° 1020.3 hPa 1.5 m/s 30.9 mm
08:00 24.0° 1021.4 hPa 1.5 m/s 30.9 mm 23.9° 1021.5 hPa 1.5 m/s 25.4° 1020.3 hPa 1.3 m/s 30.9 mm
11:00 29.7° 1020.6 hPa 1.2 m/s 30.9 mm 29.3° 1020.8 hPa 1.2 m/s 33.8° 1019.4 hPa 0.7 m/s 30.9 mm
14:00 35.0° 1019.9 hPa 1.0 m/s 30.9 mm 34.8° 1020.0 hPa 1.0 m/s 37.6° 1018.6 hPa 1.4 m/s 30.9 mm
20:00 32.3° 1018.9 hPa 1.0 m/s 31.1 mm 32.5° 1019.0 hPa 1.0 m/s 29.9° 1018.1 hPa 0.4 m/s 31.1 mm
 05:53     21:28    Daglengte: 15:35 Donderdag 27 Jun
02:00 23.4° 1020.9 hPa 1.6 m/s 31.2 mm 23.5° 1021.1 hPa 1.6 m/s 22.6° 1019.1 hPa 1.7 m/s 31.3 mm
08:00 24.8° 1020.8 hPa 1.4 m/s 31.2 mm 24.7° 1021.0 hPa 1.4 m/s 25.4° 1018.2 hPa 1.7 m/s 31.3 mm
14:00 35.0° 1018.9 hPa 1.1 m/s 31.2 mm 34.9° 1019.1 hPa 1.0 m/s 35.9° 1016.5 hPa 2.4 m/s 31.3 mm
20:00 31.8° 1017.9 hPa 1.3 m/s 31.4 mm 31.9° 1018.0 hPa 1.3 m/s 30.3° 1016.5 hPa 1.0 m/s 31.4 mm
 05:53     21:28    Daglengte: 15:35 Vrijdag 28 Jun
02:00 23.4° 1019.0 hPa 1.5 m/s 31.7 mm 23.4° 1019.0 hPa 1.5 m/s 23.1° 1019.4 hPa 1.1 m/s 31.7 mm
08:00 24.9° 1018.4 hPa 1.3 m/s 31.8 mm 24.9° 1018.3 hPa 1.4 m/s 25.1° 1019.8 hPa 0.4 m/s 31.8 mm
14:00 35.3° 1016.2 hPa 1.0 m/s 31.8 mm 35.4° 1016.0 hPa 0.9 m/s 34.3° 1018.4 hPa 1.7 m/s 31.8 mm
20:00 31.5° 1015.1 hPa 0.7 m/s 32.4 mm 31.7° 1014.9 hPa 0.6 m/s 29.1° 1017.6 hPa 1.5 m/s 32.4 mm
 05:54     21:28    Daglengte: 15:34 Zaterdag 29 Jun
02:00 23.8° 1016.3 hPa 1.6 m/s 32.5 mm 23.9° 1016.0 hPa 1.7 m/s 23.2° 1019.3 hPa 0.9 m/s 32.6 mm
08:00 22.6° 1014.1 hPa 1.3 m/s 0.0 mm
14:00 30.6° 1012.5 hPa 1.8 m/s 0.3 mm
20:00 27.8° 1012.3 hPa 1.5 m/s 0.3 mm
 05:54     21:28    Daglengte: 15:34 Zondag 30 Jun
02:00 19.3° 1014.2 hPa 1.0 m/s 0.2 mm
08:00 22.0° 1014.2 hPa 1.1 m/s 0.1 mm
14:00 28.9° 1013.2 hPa 2.1 m/s 0.2 mm
20:00 26.0° 1013.1 hPa 2.3 m/s 0.7 mm
 05:55     21:28    Daglengte: 15:33 Maandag 01 Jul
02:00 17.8° 1015.0 hPa 1.4 m/s 0.4 mm
08:00 19.8° 1014.9 hPa 1.5 m/s 0.3 mm
14:00 26.4° 1013.5 hPa 2.4 m/s 0.5 mm
20:00 23.2° 1013.5 hPa 2.8 m/s 1.3 mm
 05:56     21:28    Daglengte: 15:32 Dinsdag 02 Jul
02:00 16.1° 1015.6 hPa 1.7 m/s 0.2 mm
08:00 18.0° 1015.3 hPa 1.8 m/s 0.1 mm
14:00 24.8° 1013.8 hPa 2.7 m/s 0.9 mm
20:00 22.4° 1014.0 hPa 3.1 m/s 0.7 mm
 05:56     21:27    Daglengte: 15:31 Woensdag 03 Jul
02:00 15.1° 1016.1 hPa 2.0 m/s 0.6 mm
08:00 17.3° 1016.1 hPa 2.2 m/s 0.3 mm
14:00 24.1° 1015.0 hPa 3.1 m/s 0.6 mm
20:00 22.0° 1015.0 hPa 3.2 m/s 1.0 mm
 05:57     21:27    Daglengte: 15:30 Donderdag 04 Jul
02:00 14.6° 1016.9 hPa 1.8 m/s 0.2 mm
08:00 17.5° 1016.9 hPa 1.9 m/s 0.1 mm
FMI Hirlam - 7.5 km EWN WRFDA - 12 km DWD ICON - 7 km GFS - 25 km Basiskaart






























































Updatetijd (Europe/Amsterdam) Resolutie Lengte Stap
FMI Hirlam 13:00, 19:00, 01:00, 07:00 7.5 km 49h 1h
EWN WRFDA 10:15, 16:15, 22:15, 04:15 12 km 73h 1h
DWD ICON 11:45, 17:45, 23:45, 05:45 7 km 75h 1h
GFS 08:45, 14:45, 20:45, 02:45 25 km 237h 3h
30+ mm
25-30 mm
20-25 mm
15-20 mm
10-15 mm
6-10 mm
4-6 mm
2-4 mm
1-2 mm
0.5-1 mm
0.2-0.5 mm
0.1-0.2 mm
30+ mm
25-30 mm
20-25 mm
15-20 mm
10-15 mm
6-10 mm
4-6 mm
2-4 mm
1-2 mm
0.5-1 mm
0.2-0.5 mm
0.1-0.2 mm
Sneeuwval
Natte sneeuw
Hagel
Vorst
30+ mm
25-30 mm
20-25 mm
15-20 mm
10-15 mm
6-10 mm
4-6 mm
2-4 mm
1-2 mm
0.5-1 mm
0.2-0.5 mm
0.1-0.2 mm
Sneeuwval
Natte sneeuw
Hagel
Vorst
Onweer
50 mm
40 mm
30 mm
26 mm
22 mm
18 mm
14 mm
10 mm
9 mm
8 mm
7 mm
6 mm
5 mm
4.5 mm
4 mm
3.5 mm
3 mm
2.5 mm
2 mm
1.5 mm
1 mm
0.8 mm
0.6 mm
0.4 mm
0.2 mm
0.05 mm
35°
30°
25°
20°
15°
10°
-5°
-10°
-15°
-20°
-25°
-30°